QPF
0.02 0.02 0.01 0.01 0.03 0.05 0.09 0.11 0.11 0.12 0.13 0.11 0.10 0.10 0.10 0.08 0.10 0.10 0.09 0.08 0.07 0.08 0.09 0.08 0.07 0.07 0.06 0.03 0.01 0.00 0.01 0.02 0.04 0.03 0.02 0.02 0.02 0.01 0.01 0.01 0.01 0.01 0.01
0.03 0.02 0.02 0.02 0.02 0.04 0.07 0.10 0.12 0.14 0.15 0.13 0.09 0.08 0.09 0.07 0.08 0.10 0.10 0.10 0.09 0.09 0.10 0.10 0.08 0.07 0.06 0.04 0.02 0.01 0.02 0.03 0.04 0.05 0.03 0.02 0.02 0.01 0.00 0.00 0.00 0.00 0.00
0.04 0.03 0.03 0.03 0.03 0.04 0.06 0.08 0.11 0.15 0.17 0.15 0.13 0.10 0.11 0.10 0.09 0.10 0.11 0.11 0.10 0.09 0.09 0.11 0.11 0.09 0.07 0.05 0.03 0.03 0.04 0.04 0.04 0.04 0.04 0.02 0.02 0.01 0.00 0.00 0.00 0.00 0.00
0.06 0.04 0.04 0.04 0.03 0.04 0.06 0.07 0.08 0.12 0.16 0.16 0.15 0.12 0.09 0.08 0.09 0.09 0.10 0.10 0.11 0.10 0.09 0.09 0.11 0.09 0.08 0.06 0.04 0.04 0.05 0.05 0.05 0.05 0.05 0.03 0.01 0.01 0.01 0.00 0.00 0.00 0.01
0.06 0.06 0.04 0.04 0.04 0.04 0.05 0.08 0.09 0.09 0.11 0.12 0.15 0.14 0.12 0.10 0.10 0.11 0.11 0.11 0.10 0.10 0.11 0.09 0.11 0.11 0.08 0.06 0.05 0.04 0.04 0.05 0.05 0.06 0.06 0.04 0.02 0.01 0.01 0.01 0.00 0.00 0.00
0.05 0.07 0.06 0.03 0.04 0.06 0.05 0.08 0.13 0.09 0.08 0.09 0.13 0.14 0.11 0.11 0.11 0.10 0.10 0.10 0.10 0.10 0.11 0.10 0.11 0.12 0.10 0.05 0.03 0.03 0.03 0.03 0.05 0.06 0.06 0.05 0.03 0.01 0.01 0.01 0.01 0.01 0.00
0.03 0.06 0.05 0.04 0.03 0.05 0.06 0.07 0.12 0.12 0.10 0.09 0.10 0.13 0.10 0.09 0.10 0.10 0.10 0.09 0.09 0.10 0.10 0.11 0.09 0.10 0.10 0.07 0.04 0.03 0.03 0.03 0.03 0.04 0.06 0.05 0.03 0.01 0.01 0.01 0.01 0.01 0.01
0.04 0.05 0.05 0.05 0.04 0.06 0.07 0.07 0.08 0.11 0.11 0.10 0.09 0.14 0.11 0.08 0.08 0.08 0.08 0.08 0.08 0.08 0.08 0.10 0.09 0.08 0.09 0.07 0.04 0.03 0.02 0.02 0.03 0.03 0.04 0.05 0.04 0.02 0.01 0.01 0.01 0.01 0.01
0.07 0.06 0.04 0.04 0.04 0.06 0.08 0.07 0.05 0.08 0.11 0.10 0.09 0.13 0.12 0.07 0.07 0.07 0.07 0.07 0.07 0.06 0.05 0.07 0.08 0.06 0.06 0.06 0.04 0.03 0.03 0.03 0.03 0.03 0.02 0.03 0.04 0.03 0.02 0.01 0.01 0.02 0.02
0.06 0.05 0.04 0.03 0.03 0.05 0.09 0.08 0.05 0.05 0.08 0.09 0.08 0.10 0.14 0.07 0.07 0.08 0.07 0.06 0.06 0.05 0.04 0.04 0.06 0.06 0.05 0.06 0.04 0.03 0.03 0.03 0.02 0.02 0.02 0.02 0.03 0.04 0.02 0.01 0.01 0.01 0.02
0.05 0.04 0.04 0.03 0.03 0.04 0.09 0.09 0.06 0.05 0.07 0.07 0.07 0.08 0.13 0.09 0.06 0.07 0.08 0.07 0.05 0.04 0.03 0.03 0.04 0.05 0.05 0.07 0.06 0.03 0.03 0.03 0.02 0.02 0.02 0.02 0.02 0.04 0.05 0.03 0.02 0.02 0.02
0.05 0.04 0.04 0.04 0.04 0.04 0.09 0.09 0.08 0.06 0.06 0.05 0.05 0.07 0.10 0.08 0.05 0.05 0.05 0.05 0.04 0.04 0.03 0.03 0.03 0.04 0.05 0.06 0.08 0.05 0.04 0.04 0.04 0.03 0.03 0.03 0.03 0.03 0.04 0.05 0.03 0.02 0.02
0.04 0.03 0.04 0.05 0.04 0.04 0.07 0.10 0.09 0.08 0.06 0.05 0.04 0.05 0.09 0.09 0.05 0.03 0.04 0.04 0.03 0.03 0.02 0.02 0.03 0.04 0.04 0.05 0.07 0.07 0.05 0.04 0.04 0.03 0.03 0.03 0.03 0.03 0.03 0.03 0.04 0.03 0.03
0.02 0.03 0.05 0.06 0.05 0.04 0.06 0.10 0.09 0.09 0.07 0.05 0.04 0.04 0.06 0.07 0.05 0.03 0.03 0.03 0.04 0.04 0.03 0.03 0.03 0.04 0.04 0.04 0.05 0.07 0.06 0.05 0.04 0.03 0.02 0.02 0.02 0.03 0.02 0.02 0.02 0.03 0.04
0.02 0.03 0.05 0.06 0.05 0.04 0.05 0.08 0.08 0.08 0.07 0.05 0.04 0.03 0.04 0.06 0.06 0.05 0.04 0.03 0.03 0.04 0.04 0.04 0.04 0.04 0.05 0.05 0.05 0.06 0.06 0.05 0.05 0.05 0.05 0.04 0.03 0.03 0.03 0.03 0.03 0.03 0.04
0.02 0.03 0.05 0.05 0.04 0.04 0.05 0.06 0.06 0.07 0.07 0.05 0.05 0.03 0.03 0.04 0.04 0.04 0.04 0.04 0.04 0.04 0.04 0.05 0.05 0.05 0.05 0.06 0.06 0.06 0.05 0.05 0.06 0.06 0.05 0.04 0.03 0.03 0.03 0.03 0.02 0.02 0.03
0.03 0.04 0.06 0.06 0.04 0.04 0.04 0.05 0.06 0.05 0.06 0.06 0.05 0.04 0.04 0.03 0.03 0.03 0.03 0.03 0.03 0.03 0.04 0.04 0.04 0.05 0.06 0.06 0.05 0.05 0.05 0.05 0.05 0.05 0.04 0.03 0.03 0.03 0.02 0.02 0.02 0.02 0.03
0.03 0.03 0.05 0.05 0.04 0.04 0.04 0.04 0.05 0.05 0.05 0.06 0.04 0.04 0.04 0.03 0.03 0.03 0.03 0.02 0.02 0.03 0.03 0.03 0.04 0.04 0.05 0.06 0.05 0.04 0.04 0.04 0.04 0.04 0.04 0.03 0.03 0.03 0.03 0.03 0.02 0.02 0.02
0.04 0.04 0.05 0.06 0.05 0.05 0.05 0.04 0.04 0.04 0.05 0.06 0.04 0.04 0.04 0.03 0.03 0.03 0.03 0.03 0.02 0.02 0.03 0.03 0.03 0.04 0.05 0.06 0.05 0.03 0.03 0.04 0.04 0.04 0.04 0.04 0.04 0.04 0.04 0.04 0.03 0.03 0.04
0.04 0.05 0.05 0.07 0.07 0.06 0.05 0.04 0.04 0.04 0.04 0.05 0.05 0.03 0.03 0.03 0.03 0.03 0.03 0.03 0.03 0.03 0.03 0.03 0.03 0.03 0.04 0.06 0.05 0.04 0.03 0.04 0.05 0.05 0.05 0.05 0.05 0.04 0.04 0.04 0.04 0.05 0.05
0.05 0.04 0.04 0.07 0.08 0.06 0.04 0.04 0.04 0.05 0.04 0.05 0.06 0.04 0.03 0.03 0.02 0.02 0.03 0.03 0.03 0.04 0.05 0.05 0.04 0.04 0.05 0.06 0.05 0.04 0.04 0.04 0.04 0.04 0.04 0.04 0.04 0.04 0.04 0.04 0.04 0.06 0.06
0.04 0.03 0.04 0.07 0.07 0.04 0.03 0.04 0.04 0.04 0.05 0.06 0.07 0.05 0.04 0.03 0.02 0.02 0.02 0.03 0.03 0.03 0.05 0.05 0.05 0.05 0.06 0.05 0.04 0.04 0.04 0.04 0.03 0.03 0.03 0.03 0.04 0.04 0.05 0.05 0.06 0.07 0.07
0.04 0.03 0.04 0.05 0.05 0.03 0.02 0.03 0.04 0.04 0.04 0.05 0.06 0.05 0.04 0.04 0.03 0.02 0.02 0.03 0.03 0.04 0.04 0.05 0.05 0.06 0.05 0.04 0.04 0.04 0.03 0.03 0.03 0.03 0.04 0.03 0.03 0.03 0.04 0.04 0.05 0.05 0.05
0.05 0.04 0.03 0.03 0.02 0.02 0.02 0.03 0.03 0.04 0.04 0.04 0.05 0.03 0.02 0.03 0.03 0.02 0.02 0.02 0.02 0.03 0.05 0.06 0.06 0.05 0.05 0.04 0.04 0.03 0.03 0.03 0.03 0.03 0.04 0.04 0.04 0.04 0.04 0.04 0.04 0.05 0.05
0.04 0.04 0.03 0.03 0.02 0.02 0.02 0.02 0.02 0.03 0.04 0.04 0.04 0.03 0.02 0.02 0.02 0.03 0.03 0.03 0.02 0.03 0.05 0.05 0.05 0.04 0.05 0.04 0.03 0.03 0.03 0.03 0.03 0.04 0.04 0.03 0.03 0.03 0.04 0.04 0.04 0.05 0.06
0.04 0.04 0.03 0.03 0.03 0.03 0.02 0.02 0.02 0.03 0.03 0.04 0.04 0.03 0.02 0.02 0.02 0.02 0.03 0.03 0.04 0.06 0.06 0.05 0.04 0.04 0.05 0.05 0.04 0.04 0.04 0.04 0.04 0.04 0.04 0.04 0.03 0.03 0.04 0.04 0.04 0.04 0.05
MSLP
997.30 998.24 999.22 1000.16 1001.00 1001.70 1002.26 1002.69 1003.00 1003.22 1003.35 1003.42 1003.44 1003.42 1003.36 1003.25 1003.08 1002.83 1002.46 1001.94 1001.26 1000.41 999.41 998.32 997.25 996.31 995.63 995.33 995.47 996.10 997.19 998.67 1000.40 1002.25 1004.09 1005.79 1007.29 1008.55 1009.57 1010.41 1011.13 1011.77 1012.39
996.69 997.76 998.85 999.87 1000.76 1001.50 1002.08 1002.52 1002.85 1003.08 1003.22 1003.29 1003.28 1003.21 1003.06 1002.85 1002.56 1002.18 1001.71 1001.13 1000.41 999.56 998.60 997.57 996.55 995.66 995.01 994.69 994.80 995.38 996.42 997.86 999.58 1001.45 1003.34 1005.13 1006.73 1008.11 1009.26 1010.20 1011.00 1011.69 1012.33
996.29 997.46 998.62 999.69 1000.60 1001.34 1001.92 1002.36 1002.69 1002.91 1003.05 1003.11 1003.07 1002.94 1002.72 1002.42 1002.03 1001.56 1001.01 1000.38 999.65 998.82 997.92 996.97 996.04 995.21 994.60 994.30 994.39 994.91 995.88 997.24 998.91 1000.75 1002.64 1004.47 1006.14 1007.61 1008.85 1009.89 1010.78 1011.54 1012.23
996.10 997.32 998.51 999.59 1000.49 1001.20 1001.75 1002.16 1002.46 1002.67 1002.80 1002.84 1002.78 1002.62 1002.34 1001.97 1001.51 1000.97 1000.38 999.72 999.01 998.23 997.40 996.54 995.71 994.97 994.41 994.13 994.20 994.67 995.55 996.83 998.40 1000.17 1002.01 1003.83 1005.52 1007.04 1008.35 1009.48 1010.45 1011.29 1012.06
996.08 997.31 998.49 999.52 1000.37 1001.02 1001.51 1001.88 1002.14 1002.33 1002.45 1002.48 1002.42 1002.23 1001.94 1001.53 1001.03 1000.46 999.85 999.19 998.51 997.79 997.04 996.28 995.55 994.89 994.39 994.14 994.19 994.61 995.41 996.57 998.03 999.69 1001.45 1003.21 1004.88 1006.41 1007.77 1008.96 1010.01 1010.95 1011.80
996.19 997.38 998.49 999.45 1000.20 1000.77 1001.19 1001.49 1001.72 1001.89 1002.00 1002.04 1001.98 1001.81 1001.52 1001.11 1000.61 1000.04 999.44 998.81 998.16 997.51 996.83 996.16 995.51 994.93 994.49 994.26 994.30 994.66 995.38 996.44 997.77 999.31 1000.96 1002.63 1004.25 1005.76 1007.13 1008.36 1009.48 1010.51 1011.46
996.39 997.49 998.50 999.33 999.97 1000.43 1000.76 1001.00 1001.19 1001.35 1001.47 1001.53 1001.50 1001.36 1001.10 1000.73 1000.26 999.72 999.15 998.56 997.96 997.35 996.75 996.14 995.56 995.04 994.64 994.43 994.45 994.77 995.41 996.36 997.58 998.99 1000.52 1002.09 1003.63 1005.10 1006.46 1007.73 1008.90 1010.01 1011.06
996.65 997.62 998.48 999.16 999.67 1000.01 1000.25 1000.43 1000.59 1000.75 1000.89 1000.98 1001.00 1000.92 1000.71 1000.39 999.97 999.49 998.96 998.41 997.86 997.30 996.74 996.18 995.64 995.16 994.79 994.58 994.59 994.86 995.44 996.30 997.41 998.71 1000.13 1001.61 1003.07 1004.48 1005.82 1007.10 1008.31 1009.49 1010.62
996.97 997.78 998.45 998.97 999.32 999.55 999.71 999.83 999.97 1000.13 1000.29 1000.43 1000.50 1000.47 1000.33 1000.08 999.73 999.30 998.83 998.33 997.81 997.29 996.76 996.23 995.71 995.25 994.88 994.67 994.66 994.91 995.43 996.22 997.25 998.47 999.80 1001.18 1002.57 1003.93 1005.24 1006.51 1007.75 1008.97 1010.17
997.37 997.97 998.46 998.79 999.00 999.11 999.19 999.27 999.39 999.54 999.72 999.89 1000.00 1000.03 999.95 999.76 999.48 999.12 998.70 998.25 997.77 997.28 996.76 996.24 995.73 995.27 994.90 994.68 994.66 994.88 995.37 996.12 997.09 998.24 999.51 1000.83 1002.16 1003.48 1004.76 1006.01 1007.25 1008.50 1009.74
997.85 998.25 998.53 998.69 998.76 998.76 998.77 998.80 998.89 999.04 999.21 999.39 999.52 999.58 999.54 999.40 999.17 998.87 998.52 998.11 997.68 997.20 996.70 996.18 995.67 995.20 994.83 994.60 994.57 994.78 995.25 995.98 996.93 998.05 999.28 1000.56 1001.85 1003.13 1004.38 1005.61 1006.83 1008.07 1009.32
998.43 998.62 998.72 998.72 998.66 998.57 998.50 998.48 998.53 998.64 998.79 998.93 999.04 999.10 999.07 998.96 998.78 998.53 998.22 997.87 997.48 997.04 996.56 996.04 995.53 995.06 994.68 994.45 994.42 994.63 995.11 995.84 996.79 997.90 999.11 1000.37 1001.64 1002.89 1004.10 1005.30 1006.49 1007.70 1008.93
999.06 999.08 999.03 998.90 998.74 998.57 998.43 998.35 998.34 998.38 998.45 998.53 998.58 998.59 998.54 998.44 998.27 998.07 997.81 997.51 997.17 996.76 996.31 995.82 995.31 994.85 994.47 994.25 994.24 994.47 994.96 995.71 996.67 997.79 999.00 1000.26 1001.51 1002.74 1003.92 1005.08 1006.23 1007.39 1008.58
999.70 999.61 999.44 999.23 998.99 998.76 998.55 998.40 998.30 998.25 998.21 998.18 998.14 998.07 997.97 997.84 997.69 997.51 997.30 997.05 996.75 996.39 995.98 995.51 995.03 994.58 994.23 994.03 994.04 994.29 994.82 995.60 996.58 997.72 998.95 1000.21 1001.46 1002.66 1003.82 1004.93 1006.04 1007.15 1008.28
1000.30 1000.14 999.92 999.65 999.37 999.09 998.83 998.60 998.40 998.22 998.05 997.89 997.73 997.56 997.39 997.22 997.06 996.89 996.72 996.52 996.27 995.96 995.59 995.15 994.70 994.29 993.96 993.79 993.84 994.13 994.70 995.51 996.53 997.70 998.95 1000.22 1001.47 1002.66 1003.79 1004.87 1005.92 1006.98 1008.06
1000.78 1000.61 1000.38 1000.11 999.81 999.50 999.19 998.87 998.56 998.26 997.95 997.65 997.35 997.08 996.83 996.62 996.44 996.29 996.15 995.99 995.78 995.51 995.17 994.77 994.36 993.97 993.68 993.55 993.64 993.99 994.60 995.46 996.52 997.72 999.00 1000.28 1001.53 1002.72 1003.83 1004.89 1005.91 1006.92 1007.96
1001.10 1000.96 1000.76 1000.51 1000.21 999.88 999.52 999.13 998.72 998.28 997.85 997.41 997.00 996.64 996.33 996.08 995.90 995.76 995.64 995.50 995.32 995.08 994.77 994.39 994.01 993.65 993.40 993.32 993.46 993.86 994.52 995.43 996.54 997.78 999.09 1000.40 1001.66 1002.85 1003.96 1005.00 1006.01 1007.00 1008.00
1001.23 1001.14 1000.98 1000.76 1000.48 1000.13 999.72 999.26 998.76 998.22 997.68 997.15 996.65 996.23 995.88 995.62 995.44 995.31 995.21 995.09 994.93 994.70 994.39 994.03 993.66 993.34 993.13 993.10 993.29 993.75 994.48 995.45 996.61 997.89 999.23 1000.57 1001.86 1003.07 1004.19 1005.24 1006.25 1007.24 1008.24
1001.20 1001.14 1001.02 1000.81 1000.52 1000.15 999.70 999.17 998.59 997.98 997.36 996.77 996.24 995.80 995.45 995.20 995.04 994.94 994.85 994.74 994.58 994.35 994.05 993.69 993.34 993.04 992.87 992.90 993.16 993.68 994.48 995.51 996.73 998.06 999.45 1000.82 1002.14 1003.38 1004.53 1005.61 1006.64 1007.65 1008.66
1001.03 1000.98 1000.85 1000.63 1000.31 999.89 999.38 998.79 998.15 997.48 996.83 996.22 995.70 995.28 994.96 994.76 994.64 994.57 994.51 994.41 994.26 994.02 993.71 993.36 993.03 992.76 992.65 992.74 993.07 993.68 994.55 995.66 996.93 998.32 999.75 1001.17 1002.52 1003.80 1004.98 1006.10 1007.16 1008.20 1009.24
1000.79 1000.70 1000.52 1000.23 999.84 999.34 998.75 998.09 997.40 996.70 996.03 995.44 994.96 994.59 994.34 994.21 994.15 994.13 994.11 994.03 993.89 993.66 993.36 993.03 992.73 992.52 992.47 992.64 993.07 993.77 994.72 995.91 997.25 998.69 1000.17 1001.62 1003.01 1004.32 1005.54 1006.69 1007.79 1008.87 1009.93
1000.53 1000.35 1000.06 999.66 999.15 998.54 997.85 997.11 996.35 995.62 994.96 994.40 993.97 993.68 993.52 993.47 993.49 993.53 993.56 993.53 993.42 993.23 992.97 992.69 992.46 992.33 992.38 992.65 993.19 993.98 995.03 996.29 997.70 999.19 1000.70 1002.18 1003.59 1004.93 1006.18 1007.36 1008.49 1009.59 1010.68
1000.30 999.97 999.53 998.98 998.31 997.56 996.74 995.90 995.07 994.31 993.64 993.12 992.74 992.53 992.45 992.49 992.60 992.73 992.83 992.87 992.83 992.71 992.54 992.36 992.23 992.23 992.40 992.81 993.46 994.37 995.51 996.84 998.30 999.82 1001.35 1002.84 1004.27 1005.61 1006.87 1008.06 1009.21 1010.33 1011.43
1000.13 999.63 999.01 998.27 997.43 996.51 995.55 994.59 993.68 992.86 992.18 991.67 991.34 991.19 991.19 991.31 991.51 991.73 991.93 992.07 992.14 992.14 992.10 992.06 992.09 992.25 992.58 993.14 993.92 994.95 996.17 997.56 999.05 1000.59 1002.12 1003.60 1005.01 1006.34 1007.59 1008.78 1009.92 1011.04 1012.13
1000.03 999.35 998.54 997.62 996.59 995.51 994.40 993.31 992.31 991.42 990.71 990.19 989.88 989.77 989.83 990.03 990.31 990.63 990.94 991.20 991.42 991.58 991.71 991.87 992.09 992.44 992.96 993.67 994.60 995.72 997.02 998.45 999.95 1001.48 1002.98 1004.43 1005.80 1007.09 1008.31 1009.48 1010.60 1011.70 1012.77
1000.01 999.16 998.19 997.09 995.91 994.67 993.42 992.22 991.12 990.17 989.41 988.86 988.55 988.45 988.55 988.80 989.16 989.57 990.00 990.41 990.79 991.14 991.48 991.85 992.30 992.85 993.56 994.43 995.48 996.69 998.04 999.48 1000.97 1002.46 1003.91 1005.30 1006.62 1007.86 1009.03 1010.16 1011.24 1012.30 1013.34
Thickness
5605 5607 5609 5611 5611 5612 5614 5617 5619 5621 5622 5625 5625 5625 5626 5627 5627 5628 5628 5629 5629 5628 5628 5627 5627 5628 5627 5627 5627 5626 5624 5623 5622 5620 5619 5620 5621 5619 5617 5615 5612 5610 5607
5595 5598 5599 5600 5602 5603 5605 5608 5611 5613 5614 5618 5619 5620 5620 5620 5621 5621 5621 5622 5622 5622 5622 5621 5620 5621 5620 5619 5619 5618 5616 5615 5614 5611 5609 5608 5609 5609 5609 5606 5604 5602 5600
5587 5590 5591 5591 5592 5594 5597 5601 5603 5605 5607 5611 5612 5611 5611 5612 5612 5613 5613 5614 5614 5615 5616 5616 5614 5614 5613 5611 5611 5610 5609 5607 5605 5604 5602 5599 5598 5598 5600 5599 5597 5594 5591
5582 5583 5584 5585 5586 5587 5590 5593 5595 5597 5601 5604 5603 5603 5604 5605 5606 5607 5606 5607 5607 5608 5608 5609 5608 5607 5605 5604 5603 5603 5601 5600 5597 5595 5595 5593 5592 5587 5587 5589 5588 5585 5582
5575 5576 5578 5580 5580 5581 5583 5585 5588 5590 5594 5597 5597 5597 5597 5598 5599 5599 5599 5599 5599 5600 5600 5601 5599 5599 5597 5596 5595 5594 5593 5592 5590 5587 5586 5584 5582 5581 5576 5575 5576 5575 5573
5567 5570 5572 5575 5575 5576 5577 5579 5582 5584 5587 5589 5591 5591 5591 5591 5590 5590 5590 5591 5591 5591 5592 5592 5591 5591 5589 5588 5587 5585 5584 5583 5580 5578 5577 5575 5573 5571 5566 5564 5564 5563 5563
5561 5562 5565 5568 5569 5570 5571 5573 5576 5578 5580 5582 5583 5584 5584 5585 5584 5582 5582 5583 5583 5583 5584 5584 5583 5582 5581 5579 5578 5575 5574 5573 5571 5569 5568 5566 5564 5562 5558 5555 5552 5551 5552
5555 5558 5560 5562 5564 5566 5567 5568 5570 5572 5573 5575 5576 5576 5577 5577 5577 5576 5576 5576 5577 5577 5575 5574 5574 5573 5572 5571 5569 5566 5565 5563 5562 5561 5558 5557 5554 5552 5549 5545 5541 5538 5539
5550 5552 5555 5557 5558 5560 5561 5562 5563 5565 5566 5568 5568 5568 5569 5569 5570 5569 5569 5569 5569 5568 5566 5565 5564 5563 5562 5561 5559 5557 5555 5553 5552 5550 5549 5547 5544 5542 5539 5536 5532 5527 5525
5543 5547 5548 5549 5551 5553 5555 5556 5557 5558 5559 5560 5560 5561 5561 5561 5562 5561 5561 5560 5560 5560 5558 5557 5555 5554 5552 5550 5549 5547 5545 5543 5541 5540 5538 5536 5534 5532 5529 5526 5523 5520 5517
5535 5539 5541 5542 5544 5545 5547 5547 5549 5549 5551 5551 5551 5550 5551 5551 5552 5552 5552 5552 5551 5550 5550 5548 5546 5544 5542 5541 5539 5537 5536 5533 5531 5530 5528 5527 5525 5522 5519 5515 5512 5509 5507
5528 5531 5533 5533 5534 5536 5538 5539 5540 5541 5542 5542 5542 5542 5543 5542 5542 5543 5543 5543 5542 5541 5540 5538 5536 5534 5533 5531 5529 5527 5526 5524 5522 5520 5518 5517 5516 5513 5508 5505 5502 5499 5497
5519 5521 5523 5523 5524 5526 5528 5530 5531 5532 5533 5533 5533 5533 5533 5532 5533 5534 5534 5533 5533 5531 5530 5528 5527 5526 5524 5521 5519 5518 5516 5514 5512 5510 5508 5507 5505 5502 5498 5495 5492 5490 5488
5509 5511 5512 5513 5515 5517 5519 5520 5521 5522 5523 5524 5524 5524 5524 5524 5524 5524 5524 5523 5523 5522 5521 5519 5518 5517 5514 5512 5510 5509 5507 5505 5503 5501 5498 5497 5495 5492 5489 5486 5483 5481 5478
5501 5502 5502 5503 5505 5507 5509 5510 5512 5512 5513 5514 5515 5516 5515 5515 5514 5514 5514 5514 5513 5512 5511 5509 5507 5505 5503 5502 5501 5499 5497 5495 5493 5491 5489 5487 5485 5483 5481 5478 5475 5472 5469
5493 5493 5493 5494 5496 5497 5500 5501 5502 5503 5504 5504 5505 5506 5506 5506 5506 5505 5506 5505 5503 5502 5500 5499 5497 5495 5494 5492 5491 5489 5487 5484 5482 5481 5479 5477 5475 5474 5472 5469 5467 5464 5461
5485 5486 5486 5485 5486 5488 5490 5490 5492 5494 5495 5495 5497 5497 5498 5497 5496 5496 5497 5495 5494 5492 5491 5489 5486 5485 5483 5483 5481 5479 5477 5474 5472 5470 5468 5467 5466 5463 5461 5460 5457 5455 5453
5475 5476 5476 5477 5478 5479 5480 5481 5484 5486 5486 5487 5488 5489 5489 5488 5487 5487 5486 5485 5484 5482 5480 5478 5477 5475 5473 5472 5471 5468 5467 5464 5461 5460 5458 5457 5455 5454 5452 5450 5448 5446 5445
5464 5466 5467 5469 5470 5471 5472 5473 5476 5477 5477 5478 5479 5479 5480 5479 5478 5477 5475 5475 5473 5472 5470 5469 5467 5465 5463 5462 5460 5458 5456 5453 5451 5450 5448 5446 5445 5445 5443 5442 5440 5438 5437
5456 5457 5459 5461 5462 5462 5463 5465 5466 5467 5467 5468 5469 5470 5470 5469 5468 5467 5466 5465 5464 5463 5461 5459 5457 5455 5453 5452 5450 5448 5445 5443 5441 5440 5439 5438 5437 5436 5435 5433 5432 5431 5429
5447 5449 5449 5450 5451 5452 5454 5455 5456 5457 5458 5459 5459 5460 5459 5459 5458 5457 5456 5455 5454 5452 5450 5449 5446 5445 5444 5442 5440 5438 5435 5433 5431 5429 5428 5427 5427 5427 5427 5426 5425 5424 5422
5437 5438 5437 5438 5440 5442 5444 5445 5446 5447 5448 5449 5449 5449 5449 5448 5448 5446 5445 5444 5443 5441 5439 5437 5435 5434 5433 5432 5430 5428 5426 5424 5421 5419 5418 5418 5418 5418 5418 5418 5417 5416 5413
5426 5426 5427 5427 5428 5430 5433 5434 5435 5436 5437 5438 5437 5437 5438 5437 5437 5436 5434 5433 5431 5429 5428 5426 5425 5423 5422 5421 5420 5418 5417 5414 5412 5410 5410 5410 5409 5409 5409 5409 5408 5406 5403
5415 5416 5416 5417 5418 5419 5422 5423 5424 5425 5426 5427 5427 5427 5427 5426 5425 5424 5424 5422 5420 5419 5418 5416 5415 5413 5411 5410 5409 5407 5405 5404 5402 5401 5400 5401 5400 5401 5400 5400 5398 5397 5394
5405 5406 5406 5407 5407 5408 5410 5412 5413 5414 5415 5416 5416 5416 5415 5415 5413 5412 5411 5411 5411 5411 5409 5408 5406 5404 5402 5402 5401 5398 5396 5395 5393 5392 5391 5391 5391 5392 5391 5391 5389 5387 5384
5396 5396 5396 5397 5397 5398 5400 5401 5402 5404 5405 5405 5405 5404 5404 5404 5403 5401 5401 5401 5401 5401 5400 5400 5398 5397 5395 5393 5392 5390 5389 5387 5386 5384 5383 5383 5383 5382 5382 5381 5379 5377 5375